Location: �couen
(49.0206°N, 2.3831°E)
Time: 16:32:41
(UTC+00:00)

FENGYUN 1C DEB - Pass Details

Date: 06 April 2023
Orbit: 840 x 948 km, 98.8° (Epoch: 28 May)

Event Time Altitude Azimuth Distance (km) Brightness Sun altitude
Rises 20:19:45 0° 192° (SSW) 3,568 ? -17.6°
Reaches altitude 10° 20:22:26 10° 201° (SSW) 2,615 ? -18.0°
Maximum altitude 20:27:39 33° 265° (W) 1,474 ? -18.7°
Drops below altitude 10° 20:32:48 10° 328° (NNW) 2,567 ? -19.4°
Sets 20:35:26 0° 338° (NNW) 3,494 ? -19.7°
